GLD769 SBHT-SBBE

Flight info

Callsign GLD769
Flight time 2h 6m
Altitude 7000
Route PAKUT
Aircraft C208/L-SDFGR/C

Departure

Time 2026-05-09 00:12
Airport Altamira Interstate Airport (SBHT)

Arrival

Time 2026-05-09 02:19
Airport Val de Cans/Júlio Cezar Ribeiro International Airport (SBBE)
Time Latitude Longitude Altitude Speed Heading
2026-05-08 23:45 -3.25220 -52.24966 373 ft 0 kts 146°
2026-05-09 00:07 -3.25231 -52.24959 373 ft 1 kts 142°
2026-05-09 00:07 -3.25261 -52.24967 373 ft 8 kts 221°
2026-05-09 00:07 -3.25296 -52.25020 373 ft 9 kts 280°
2026-05-09 00:08 -3.25257 -52.25058 373 ft 7 kts 322°
2026-05-09 00:08 -3.25218 -52.25088 373 ft 8 kts 323°
2026-05-09 00:08 -3.25180 -52.25119 375 ft 6 kts 322°
2026-05-09 00:08 -3.25159 -52.25167 376 ft 11 kts 261°
2026-05-09 00:09 -3.25207 -52.25258 378 ft 18 kts 231°
2026-05-09 00:09 -3.25300 -52.25375 378 ft 25 kts 231°
2026-05-09 00:09 -3.25422 -52.25525 376 ft 30 kts 232°
2026-05-09 00:09 -3.25542 -52.25683 373 ft 26 kts 231°
2026-05-09 00:10 -3.25648 -52.25815 373 ft 22 kts 231°
2026-05-09 00:10 -3.25747 -52.25946 374 ft 27 kts 232°
2026-05-09 00:10 -3.25863 -52.26053 376 ft 16 kts 196°
2026-05-09 00:10 -3.25839 -52.26062 375 ft 11 kts 51°
2026-05-09 00:11 -3.25747 -52.25946 374 ft 39 kts 52°
2026-05-09 00:11 -3.25511 -52.25644 374 ft 68 kts 53°
2026-05-09 00:11 -3.25188 -52.25231 377 ft 81 kts 51°
2026-05-09 00:11 -3.24832 -52.24811 480 ft 75 kts 47°
2026-05-09 00:12 -3.24466 -52.24462 644 ft 75 kts 40°
2026-05-09 00:12 -3.24049 -52.24111 769 ft 84 kts 37°
2026-05-09 00:12 -3.23555 -52.23697 870 ft 97 kts 37°
2026-05-09 00:12 -3.22991 -52.23294 991 ft 104 kts 34°
2026-05-09 00:13 -3.22326 -52.22966 1105 ft 113 kts
2026-05-09 00:13 -3.21577 -52.22717 1218 ft 120 kts 42°
2026-05-09 00:13 -3.20973 -52.22121 1443 ft 123 kts 43°
2026-05-09 00:13 -3.20351 -52.21532 1697 ft 124 kts 43°
2026-05-09 00:14 -3.19723 -52.20944 1939 ft 125 kts 43°
2026-05-09 00:14 -3.19069 -52.20355 2183 ft 127 kts 43°
2026-05-09 00:14 -3.18405 -52.19767 2420 ft 126 kts 43°
2026-05-09 00:14 -3.17749 -52.19185 2663 ft 126 kts 43°
2026-05-09 00:15 -3.17094 -52.18614 2905 ft 125 kts 44°
2026-05-09 00:15 -3.16445 -52.18044 3142 ft 123 kts 52°
2026-05-09 00:15 -3.15982 -52.17335 3382 ft 123 kts 51°
2026-05-09 00:15 -3.15342 -52.16746 3625 ft 126 kts 45°
2026-05-09 00:16 -3.14689 -52.16155 3870 ft 128 kts 46°
2026-05-09 00:16 -3.14024 -52.15564 4114 ft 128 kts 46°
2026-05-09 00:16 -3.13356 -52.14976 4358 ft 128 kts 46°
2026-05-09 00:16 -3.12689 -52.14388 4603 ft 129 kts 46°
2026-05-09 00:17 -3.12010 -52.13794 4845 ft 130 kts 46°
2026-05-09 00:17 -3.11332 -52.13198 5086 ft 129 kts 46°
2026-05-09 00:17 -3.10647 -52.12598 5327 ft 132 kts 47°
2026-05-09 00:17 -3.09962 -52.11997 5565 ft 133 kts 47°
2026-05-09 00:18 -3.09267 -52.11389 5810 ft 132 kts 47°
2026-05-09 00:18 -3.08577 -52.10785 6055 ft 131 kts 46°
2026-05-09 00:18 -3.07894 -52.10187 6282 ft 130 kts 46°
2026-05-09 00:18 -3.07214 -52.09592 6527 ft 129 kts 47°
2026-05-09 00:19 -3.06541 -52.08999 6751 ft 129 kts 47°
2026-05-09 00:19 -3.05869 -52.08411 6979 ft 128 kts 46°
2026-05-09 00:19 -3.05170 -52.07796 7035 ft 141 kts 46°
2026-05-09 00:19 -3.04401 -52.07119 7046 ft 152 kts 45°
2026-05-09 00:20 -3.03584 -52.06405 7044 ft 159 kts 45°
2026-05-09 00:20 -3.02735 -52.05664 7042 ft 165 kts 45°
2026-05-09 00:20 -3.01863 -52.04902 7044 ft 168 kts 45°
2026-05-09 00:20 -3.00978 -52.04125 7037 ft 169 kts 45°
2026-05-09 00:21 -3.00090 -52.03348 7035 ft 170 kts 45°
2026-05-09 00:21 -2.99201 -52.02569 7037 ft 170 kts 45°
2026-05-09 00:21 -2.98309 -52.01787 7037 ft 170 kts 45°
2026-05-09 00:21 -2.97429 -52.01016 7035 ft 170 kts 45°
2026-05-09 00:22 -2.96530 -52.00229 7034 ft 168 kts 45°
2026-05-09 00:22 -2.95660 -51.99469 7025 ft 169 kts 45°
2026-05-09 00:22 -2.94772 -51.98688 7011 ft 171 kts 45°
2026-05-09 00:22 -2.93863 -51.97891 6964 ft 174 kts 45°
2026-05-09 00:23 -2.92955 -51.97097 6964 ft 172 kts 45°
2026-05-09 00:23 -2.92064 -51.96319 6963 ft 168 kts 45°
2026-05-09 00:23 -2.91189 -51.95552 6959 ft 167 kts 45°
2026-05-09 00:23 -2.90321 -51.94790 6956 ft 165 kts 45°
2026-05-09 00:24 -2.89458 -51.94035 6951 ft 165 kts 45°
2026-05-09 00:24 -2.88597 -51.93279 6949 ft 165 kts 45°
2026-05-09 00:24 -2.87734 -51.92524 6948 ft 165 kts 45°
2026-05-09 00:24 -2.86874 -51.91769 6949 ft 165 kts 45°
2026-05-09 00:25 -2.86012 -51.91014 6949 ft 165 kts 45°
2026-05-09 00:25 -2.85149 -51.90259 6946 ft 165 kts 45°
2026-05-09 00:25 -2.84287 -51.89504 6946 ft 165 kts 45°
2026-05-09 00:25 -2.83425 -51.88748 6947 ft 165 kts 45°
2026-05-09 00:26 -2.82561 -51.87992 6948 ft 165 kts 45°
2026-05-09 00:26 -2.81694 -51.87233 6950 ft 166 kts 45°
2026-05-09 00:26 -2.80827 -51.86473 6948 ft 166 kts 45°
2026-05-09 00:26 -2.79960 -51.85714 6948 ft 166 kts 45°
2026-05-09 00:27 -2.79091 -51.84953 6950 ft 166 kts 45°
2026-05-09 00:27 -2.78225 -51.84195 6947 ft 165 kts 45°
2026-05-09 00:27 -2.77370 -51.83446 6946 ft 165 kts 45°
2026-05-09 00:27 -2.76506 -51.82688 6947 ft 165 kts 45°
2026-05-09 00:28 -2.75641 -51.81932 6945 ft 165 kts 46°
2026-05-09 00:28 -2.74781 -51.81178 6947 ft 164 kts 46°
2026-05-09 00:28 -2.73922 -51.80425 6947 ft 164 kts 46°
2026-05-09 00:28 -2.73059 -51.79669 6946 ft 165 kts 46°
2026-05-09 00:29 -2.72193 -51.78911 6945 ft 166 kts 45°
2026-05-09 00:29 -2.71326 -51.78153 6950 ft 166 kts 46°
2026-05-09 00:29 -2.70457 -51.77390 6950 ft 166 kts 45°
2026-05-09 00:29 -2.69584 -51.76628 6950 ft 167 kts 45°
2026-05-09 00:30 -2.68714 -51.75864 6950 ft 166 kts 45°
2026-05-09 00:30 -2.67846 -51.75105 6951 ft 165 kts 45°
2026-05-09 00:30 -2.66979 -51.74347 6949 ft 165 kts 46°
2026-05-09 00:30 -2.66117 -51.73591 6948 ft 165 kts 45°
2026-05-09 00:31 -2.65258 -51.72838 6946 ft 164 kts 45°
2026-05-09 00:31 -2.64396 -51.72085 6943 ft 165 kts 45°
2026-05-09 00:31 -2.63533 -51.71329 6943 ft 165 kts 45°
2026-05-09 00:31 -2.62672 -51.70575 6944 ft 164 kts 45°
2026-05-09 00:32 -2.61810 -51.69819 6943 ft 165 kts 45°
2026-05-09 00:32 -2.60959 -51.69074 6945 ft 165 kts 45°
2026-05-09 00:32 -2.60082 -51.68307 6944 ft 166 kts 45°
2026-05-09 00:32 -2.59229 -51.67560 6943 ft 165 kts 45°
2026-05-09 00:33 -2.58364 -51.66802 6944 ft 166 kts 45°
2026-05-09 00:33 -2.57494 -51.66041 6944 ft 166 kts 45°
2026-05-09 00:33 -2.56623 -51.65280 6943 ft 166 kts 45°
2026-05-09 00:33 -2.55756 -51.64519 6945 ft 166 kts 45°
2026-05-09 00:34 -2.54890 -51.63762 6943 ft 166 kts 45°
2026-05-09 00:34 -2.54022 -51.63001 6945 ft 165 kts 45°
2026-05-09 00:34 -2.53155 -51.62244 6944 ft 165 kts 45°
2026-05-09 00:34 -2.52288 -51.61485 6941 ft 166 kts 46°
2026-05-09 00:35 -2.51421 -51.60725 6940 ft 166 kts 46°
2026-05-09 00:35 -2.50550 -51.59963 6940 ft 166 kts 45°
2026-05-09 00:35 -2.49678 -51.59201 6940 ft 167 kts 45°
2026-05-09 00:35 -2.48806 -51.58437 6942 ft 167 kts 45°
2026-05-09 00:36 -2.47946 -51.57683 6942 ft 167 kts 45°
2026-05-09 00:36 -2.47073 -51.56920 6945 ft 167 kts 45°
2026-05-09 00:36 -2.46188 -51.56146 6943 ft 167 kts 45°
2026-05-09 00:36 -2.45327 -51.55391 6945 ft 166 kts 45°
2026-05-09 00:37 -2.44457 -51.54631 6943 ft 166 kts 46°
2026-05-09 00:37 -2.43592 -51.53874 6940 ft 165 kts 45°
2026-05-09 00:37 -2.42725 -51.53114 6943 ft 166 kts 45°
2026-05-09 00:37 -2.41856 -51.52353 6940 ft 166 kts 45°
2026-05-09 00:38 -2.40985 -51.51592 6942 ft 166 kts 45°
2026-05-09 00:38 -2.40118 -51.50833 6942 ft 166 kts 45°
2026-05-09 00:38 -2.39248 -51.50071 6941 ft 167 kts 45°
2026-05-09 00:38 -2.38375 -51.49307 6942 ft 167 kts 45°
2026-05-09 00:39 -2.37500 -51.48542 6942 ft 167 kts 45°
2026-05-09 00:39 -2.36622 -51.47773 6942 ft 168 kts 45°
2026-05-09 00:39 -2.35740 -51.47001 6940 ft 168 kts 45°
2026-05-09 00:39 -2.34858 -51.46232 6940 ft 168 kts 45°
2026-05-09 00:40 -2.33977 -51.45459 6939 ft 169 kts 45°
2026-05-09 00:40 -2.33094 -51.44688 6938 ft 169 kts 46°
2026-05-09 00:40 -2.32213 -51.43915 6937 ft 168 kts 45°
2026-05-09 00:41 -2.30448 -51.42372 6937 ft 169 kts 46°
2026-05-09 00:41 -2.29568 -51.41600 6938 ft 168 kts 46°
2026-05-09 00:41 -2.28696 -51.40839 6938 ft 168 kts 45°
2026-05-09 00:41 -2.27813 -51.40067 6937 ft 169 kts 45°
2026-05-09 00:42 -2.26930 -51.39294 6935 ft 169 kts 45°
2026-05-09 00:42 -2.26046 -51.38520 6932 ft 169 kts 45°
2026-05-09 00:42 -2.25161 -51.37747 6934 ft 169 kts 46°
2026-05-09 00:42 -2.24275 -51.36971 6931 ft 169 kts 46°
2026-05-09 00:43 -2.23393 -51.36200 6932 ft 168 kts 45°
2026-05-09 00:43 -2.22518 -51.35434 6934 ft 167 kts 46°
2026-05-09 00:43 -2.21640 -51.34665 6933 ft 168 kts 46°
2026-05-09 00:43 -2.20759 -51.33894 6937 ft 168 kts 45°
2026-05-09 00:44 -2.19879 -51.33124 6929 ft 168 kts 45°
2026-05-09 00:44 -2.18999 -51.32357 6933 ft 168 kts 46°
2026-05-09 00:44 -2.18120 -51.31587 6931 ft 168 kts 45°
2026-05-09 00:44 -2.17239 -51.30817 6931 ft 168 kts 45°
2026-05-09 00:45 -2.16359 -51.30047 6930 ft 168 kts 45°
2026-05-09 00:45 -2.15479 -51.29277 6933 ft 167 kts 46°
2026-05-09 00:45 -2.14605 -51.28511 6932 ft 167 kts 45°
2026-05-09 00:45 -2.13729 -51.27746 6932 ft 167 kts 45°
2026-05-09 00:46 -2.12854 -51.26981 6932 ft 167 kts 46°
2026-05-09 00:46 -2.11992 -51.26226 6928 ft 167 kts 45°
2026-05-09 00:46 -2.11118 -51.25463 6931 ft 167 kts 46°
2026-05-09 00:46 -2.10244 -51.24697 6930 ft 167 kts 46°
2026-05-09 00:47 -2.09369 -51.23932 6929 ft 168 kts 45°
2026-05-09 00:47 -2.08491 -51.23164 6931 ft 168 kts 46°
2026-05-09 00:47 -2.07612 -51.22396 6931 ft 168 kts 46°
2026-05-09 00:47 -2.06730 -51.21625 6931 ft 169 kts 46°
2026-05-09 00:48 -2.05845 -51.20850 6930 ft 169 kts 45°
2026-05-09 00:48 -2.04963 -51.20079 6931 ft 169 kts 45°
2026-05-09 00:48 -2.04073 -51.19301 6933 ft 171 kts 45°
2026-05-09 00:48 -2.03480 -51.18783 6931 ft 171 kts 45°
2026-05-09 00:49 -2.02586 -51.18000 6928 ft 170 kts 45°
2026-05-09 00:49 -2.01407 -51.16970 6929 ft 170 kts 45°
2026-05-09 00:49 -2.00521 -51.16196 6928 ft 169 kts 46°
2026-05-09 00:49 -1.99637 -51.15421 6928 ft 169 kts 45°
2026-05-09 00:50 -1.98751 -51.14648 6928 ft 169 kts 45°
2026-05-09 00:50 -1.98154 -51.14126 6929 ft 169 kts 46°
2026-05-09 00:50 -1.96984 -51.13101 6929 ft 169 kts 45°
2026-05-09 00:50 -1.96100 -51.12329 6928 ft 169 kts 45°
2026-05-09 00:51 -1.95501 -51.11806 6928 ft 169 kts 46°
2026-05-09 00:51 -1.94620 -51.11034 6929 ft 168 kts 46°
2026-05-09 00:51 -1.93738 -51.10263 6929 ft 168 kts 45°
2026-05-09 00:51 -1.92856 -51.09493 6929 ft 168 kts 45°
2026-05-09 00:52 -1.91986 -51.08733 6928 ft 168 kts 46°
2026-05-09 00:52 -1.91095 -51.07953 6923 ft 168 kts 46°
2026-05-09 00:52 -1.90232 -51.07199 6930 ft 167 kts 46°
2026-05-09 00:52 -1.89344 -51.06420 6926 ft 168 kts 46°
2026-05-09 00:53 -1.88477 -51.05664 6928 ft 168 kts 46°
2026-05-09 00:53 -1.87598 -51.04895 6928 ft 168 kts 46°
2026-05-09 00:53 -1.86715 -51.04124 6926 ft 168 kts 45°
2026-05-09 00:53 -1.85833 -51.03353 6923 ft 168 kts 46°
2026-05-09 00:54 -1.84952 -51.02582 6926 ft 168 kts 46°
2026-05-09 00:54 -1.84072 -51.01812 6925 ft 168 kts 45°
2026-05-09 00:54 -1.83193 -51.01045 6928 ft 168 kts 46°
2026-05-09 00:54 -1.82316 -51.00277 6929 ft 167 kts 46°
2026-05-09 00:55 -1.81439 -50.99511 6929 ft 167 kts 45°
2026-05-09 00:55 -1.80562 -50.98744 6925 ft 167 kts 46°
2026-05-09 00:55 -1.79904 -50.97830 6923 ft 160 kts 72°
2026-05-09 00:55 -1.79666 -50.96759 6928 ft 158 kts 84°
2026-05-09 00:56 -1.79496 -50.95671 6929 ft 159 kts 83°
2026-05-09 00:56 -1.79316 -50.94582 6932 ft 159 kts 83°
2026-05-09 00:56 -1.79135 -50.93494 6932 ft 159 kts 83°
2026-05-09 00:56 -1.78955 -50.92403 6931 ft 159 kts 83°
2026-05-09 00:57 -1.78775 -50.91308 6933 ft 160 kts 83°
2026-05-09 00:57 -1.78594 -50.90220 6933 ft 162 kts 83°
2026-05-09 00:57 -1.78412 -50.89110 6931 ft 162 kts 83°
2026-05-09 00:57 -1.78229 -50.88004 6930 ft 161 kts 83°
2026-05-09 00:58 -1.78047 -50.86905 6929 ft 160 kts 83°
2026-05-09 00:58 -1.77866 -50.85807 6925 ft 160 kts 83°
2026-05-09 00:58 -1.77685 -50.84707 6921 ft 161 kts 83°
2026-05-09 00:58 -1.77502 -50.83601 6925 ft 162 kts 83°
2026-05-09 00:59 -1.77318 -50.82490 6924 ft 162 kts 83°
2026-05-09 00:59 -1.77135 -50.81378 6927 ft 162 kts 83°
2026-05-09 00:59 -1.76951 -50.80265 6921 ft 163 kts 83°
2026-05-09 00:59 -1.76767 -50.79149 6926 ft 162 kts 83°
2026-05-09 01:00 -1.76583 -50.78038 6925 ft 162 kts 83°
2026-05-09 01:00 -1.76401 -50.76927 6919 ft 162 kts 83°
2026-05-09 01:00 -1.76217 -50.75819 6916 ft 161 kts 83°
2026-05-09 01:00 -1.76034 -50.74710 6923 ft 162 kts 83°
2026-05-09 01:01 -1.75851 -50.73602 6924 ft 162 kts 83°
2026-05-09 01:01 -1.75667 -50.72493 6919 ft 162 kts 83°
2026-05-09 01:01 -1.75485 -50.71385 6922 ft 162 kts 83°
2026-05-09 01:01 -1.75302 -50.70278 6923 ft 162 kts 83°
2026-05-09 01:02 -1.75118 -50.69170 6922 ft 162 kts 83°
2026-05-09 01:02 -1.74936 -50.68063 6917 ft 161 kts 83°
2026-05-09 01:02 -1.74754 -50.66958 6923 ft 162 kts 83°
2026-05-09 01:02 -1.74570 -50.65848 6923 ft 162 kts 83°
2026-05-09 01:03 -1.74387 -50.64742 6912 ft 161 kts 83°
2026-05-09 01:03 -1.74203 -50.63637 6913 ft 161 kts 83°
2026-05-09 01:03 -1.74023 -50.62547 6913 ft 161 kts 83°
2026-05-09 01:03 -1.73842 -50.61442 6907 ft 161 kts 83°
2026-05-09 01:04 -1.73660 -50.60336 6911 ft 162 kts 83°
2026-05-09 01:04 -1.73476 -50.59229 6913 ft 161 kts 83°
2026-05-09 01:04 -1.73294 -50.58119 6909 ft 162 kts 83°
2026-05-09 01:04 -1.73110 -50.57013 6912 ft 162 kts 83°
2026-05-09 01:05 -1.72927 -50.55900 6910 ft 162 kts 83°
2026-05-09 01:05 -1.72744 -50.54790 6909 ft 162 kts 83°
2026-05-09 01:05 -1.72377 -50.52580 6907 ft 162 kts 83°
2026-05-09 01:06 -1.72194 -50.51465 6907 ft 163 kts 83°
2026-05-09 01:06 -1.72009 -50.50345 6908 ft 164 kts 83°
2026-05-09 01:06 -1.71823 -50.49218 6906 ft 165 kts 83°
2026-05-09 01:06 -1.71635 -50.48087 6910 ft 165 kts 83°
2026-05-09 01:07 -1.71448 -50.46956 6907 ft 165 kts 83°
2026-05-09 01:07 -1.71261 -50.45826 6902 ft 164 kts 83°
2026-05-09 01:07 -1.71075 -50.44701 6899 ft 163 kts 83°
2026-05-09 01:07 -1.70891 -50.43584 6903 ft 163 kts 83°
2026-05-09 01:08 -1.70706 -50.42464 6899 ft 163 kts 83°
2026-05-09 01:08 -1.70521 -50.41351 6903 ft 162 kts 83°
2026-05-09 01:08 -1.70339 -50.40239 6903 ft 163 kts 83°
2026-05-09 01:08 -1.70154 -50.39118 6901 ft 163 kts 83°
2026-05-09 01:09 -1.69967 -50.37999 6899 ft 163 kts 83°
2026-05-09 01:09 -1.69782 -50.36881 6896 ft 163 kts 83°
2026-05-09 01:09 -1.69599 -50.35765 6895 ft 163 kts 83°
2026-05-09 01:09 -1.69417 -50.34665 6893 ft 163 kts 83°
2026-05-09 01:10 -1.69231 -50.33547 6891 ft 163 kts 83°
2026-05-09 01:10 -1.69048 -50.32432 6889 ft 163 kts 83°
2026-05-09 01:10 -1.68864 -50.31320 6888 ft 162 kts 83°
2026-05-09 01:10 -1.68680 -50.30212 6887 ft 161 kts 83°
2026-05-09 01:11 -1.68497 -50.29106 6887 ft 161 kts 83°
2026-05-09 01:11 -1.68314 -50.27996 6888 ft 162 kts 83°
2026-05-09 01:11 -1.68130 -50.26887 6886 ft 161 kts 83°
2026-05-09 01:11 -1.67947 -50.25783 6886 ft 161 kts 83°
2026-05-09 01:12 -1.67765 -50.24677 6884 ft 161 kts 83°
2026-05-09 01:12 -1.67582 -50.23572 6882 ft 161 kts 83°
2026-05-09 01:12 -1.67400 -50.22469 6882 ft 161 kts 83°
2026-05-09 01:12 -1.67217 -50.21362 6881 ft 161 kts 83°
2026-05-09 01:13 -1.67035 -50.20270 6879 ft 161 kts 83°
2026-05-09 01:13 -1.66854 -50.19170 6874 ft 160 kts 83°
2026-05-09 01:13 -1.66672 -50.18072 6873 ft 160 kts 83°
2026-05-09 01:13 -1.66490 -50.16972 6872 ft 160 kts 83°
2026-05-09 01:14 -1.66309 -50.15873 6872 ft 161 kts 83°
2026-05-09 01:14 -1.66125 -50.14770 6870 ft 161 kts 83°
2026-05-09 01:14 -1.65944 -50.13670 6870 ft 161 kts 83°
2026-05-09 01:14 -1.65761 -50.12565 6869 ft 161 kts 83°
2026-05-09 01:15 -1.65578 -50.11463 6870 ft 161 kts 83°
2026-05-09 01:15 -1.65396 -50.10359 6869 ft 161 kts 83°
2026-05-09 01:15 -1.65212 -50.09250 6867 ft 162 kts 83°
2026-05-09 01:15 -1.65028 -50.08138 6868 ft 162 kts 83°
2026-05-09 01:16 -1.64844 -50.07024 6867 ft 163 kts 83°
2026-05-09 01:16 -1.64659 -50.05916 6862 ft 158 kts 83°
2026-05-09 01:16 -1.64487 -50.04863 6851 ft 151 kts 83°
2026-05-09 01:17 -1.64151 -50.02834 6836 ft 146 kts 83°
2026-05-09 01:17 -1.63986 -50.01833 6826 ft 146 kts 83°
2026-05-09 01:17 -1.63823 -50.00842 6823 ft 144 kts 83°
2026-05-09 01:17 -1.63661 -49.99858 6817 ft 143 kts 84°
2026-05-09 01:18 -1.63499 -49.98878 6815 ft 143 kts 84°
2026-05-09 01:18 -1.63337 -49.97897 6815 ft 143 kts 83°
2026-05-09 01:18 -1.63172 -49.96912 6818 ft 144 kts 83°
2026-05-09 01:18 -1.62960 -49.95931 6820 ft 145 kts 80°
2026-05-09 01:19 -1.62746 -49.94951 6816 ft 144 kts 81°
2026-05-09 01:19 -1.62543 -49.93975 6814 ft 143 kts 82°
2026-05-09 01:19 -1.62346 -49.93014 6813 ft 143 kts 82°
2026-05-09 01:19 -1.62144 -49.92030 6812 ft 143 kts 81°
2026-05-09 01:20 -1.61946 -49.91059 6809 ft 143 kts 81°
2026-05-09 01:20 -1.61746 -49.90087 6805 ft 143 kts 82°
2026-05-09 01:20 -1.61551 -49.89131 6805 ft 142 kts 81°
2026-05-09 01:20 -1.61352 -49.88161 6805 ft 142 kts 81°
2026-05-09 01:21 -1.61155 -49.87191 6802 ft 143 kts 81°
2026-05-09 01:21 -1.60956 -49.86220 6801 ft 142 kts 81°
2026-05-09 01:21 -1.60759 -49.85255 6800 ft 141 kts 82°
2026-05-09 01:21 -1.60562 -49.84293 6800 ft 142 kts 81°
2026-05-09 01:22 -1.60366 -49.83329 6800 ft 142 kts 81°
2026-05-09 01:22 -1.60167 -49.82361 6798 ft 142 kts 81°
2026-05-09 01:22 -1.59970 -49.81394 6797 ft 142 kts 81°
2026-05-09 01:22 -1.59772 -49.80427 6798 ft 142 kts 81°
2026-05-09 01:23 -1.59574 -49.79462 6796 ft 142 kts 81°
2026-05-09 01:23 -1.59376 -49.78497 6796 ft 142 kts 82°
2026-05-09 01:23 -1.59180 -49.77533 6798 ft 141 kts 81°
2026-05-09 01:23 -1.58984 -49.76572 6796 ft 142 kts 82°
2026-05-09 01:24 -1.58786 -49.75604 6793 ft 142 kts 81°
2026-05-09 01:24 -1.58588 -49.74637 6788 ft 142 kts 82°
2026-05-09 01:24 -1.58389 -49.73664 6790 ft 143 kts 81°
2026-05-09 01:24 -1.58190 -49.72692 6788 ft 143 kts 81°
2026-05-09 01:25 -1.57992 -49.71716 6787 ft 144 kts 81°
2026-05-09 01:25 -1.57790 -49.70736 6790 ft 144 kts 81°
2026-05-09 01:25 -1.57589 -49.69759 6789 ft 144 kts 81°
2026-05-09 01:25 -1.57393 -49.68794 6789 ft 144 kts 81°
2026-05-09 01:26 -1.57193 -49.67817 6787 ft 143 kts 81°
2026-05-09 01:26 -1.56993 -49.66840 6786 ft 143 kts 81°
2026-05-09 01:26 -1.56792 -49.65863 6789 ft 144 kts 82°
2026-05-09 01:26 -1.56593 -49.64884 6789 ft 144 kts 81°
2026-05-09 01:27 -1.56392 -49.63901 6787 ft 144 kts 81°
2026-05-09 01:27 -1.56191 -49.62918 6784 ft 144 kts 81°
2026-05-09 01:27 -1.55986 -49.61932 6784 ft 145 kts 81°
2026-05-09 01:27 -1.55784 -49.60946 6780 ft 145 kts 81°
2026-05-09 01:28 -1.55586 -49.59962 6782 ft 145 kts 81°
2026-05-09 01:28 -1.55384 -49.58978 6772 ft 145 kts 81°
2026-05-09 01:28 -1.55183 -49.57993 6772 ft 144 kts 81°
2026-05-09 01:28 -1.54982 -49.57009 6776 ft 145 kts 81°
2026-05-09 01:29 -1.54780 -49.56020 6770 ft 146 kts 81°
2026-05-09 01:29 -1.54576 -49.55025 6782 ft 147 kts 81°
2026-05-09 01:29 -1.54372 -49.54023 6779 ft 148 kts 81°
2026-05-09 01:29 -1.54167 -49.53029 6778 ft 148 kts 81°
2026-05-09 01:30 -1.53962 -49.52023 6777 ft 147 kts 81°
2026-05-09 01:30 -1.53757 -49.51025 6773 ft 146 kts 81°
2026-05-09 01:30 -1.53554 -49.50031 6770 ft 146 kts 81°
2026-05-09 01:30 -1.53352 -49.49042 6770 ft 145 kts 81°
2026-05-09 01:31 -1.53151 -49.48055 6766 ft 145 kts 81°
2026-05-09 01:31 -1.52948 -49.47067 6763 ft 145 kts 81°
2026-05-09 01:31 -1.52746 -49.46079 6763 ft 145 kts 81°
2026-05-09 01:31 -1.52542 -49.45094 6762 ft 144 kts 81°
2026-05-09 01:32 -1.52341 -49.44111 6761 ft 144 kts 81°
2026-05-09 01:32 -1.52145 -49.43133 6758 ft 144 kts 81°
2026-05-09 01:32 -1.51943 -49.42156 6756 ft 144 kts 81°
2026-05-09 01:32 -1.51742 -49.41175 6753 ft 143 kts 81°
2026-05-09 01:33 -1.51543 -49.40202 6755 ft 143 kts 81°
2026-05-09 01:33 -1.51345 -49.39228 6757 ft 143 kts 81°
2026-05-09 01:33 -1.51145 -49.38253 6756 ft 143 kts 81°
2026-05-09 01:33 -1.50945 -49.37280 6755 ft 143 kts 81°
2026-05-09 01:34 -1.50746 -49.36308 6751 ft 143 kts 81°
2026-05-09 01:34 -1.50549 -49.35347 6753 ft 143 kts 81°
2026-05-09 01:34 -1.50350 -49.34372 6755 ft 143 kts 81°
2026-05-09 01:34 -1.50150 -49.33397 6754 ft 143 kts 81°
2026-05-09 01:35 -1.49951 -49.32420 6754 ft 143 kts 81°
2026-05-09 01:35 -1.49750 -49.31444 6751 ft 144 kts 81°
2026-05-09 01:35 -1.49550 -49.30465 6749 ft 144 kts 81°
2026-05-09 01:35 -1.49350 -49.29486 6748 ft 144 kts 81°
2026-05-09 01:36 -1.49149 -49.28505 6747 ft 144 kts 81°
2026-05-09 01:36 -1.48948 -49.27524 6747 ft 144 kts 80°
2026-05-09 01:36 -1.48748 -49.26543 6745 ft 144 kts 81°
2026-05-09 01:36 -1.48546 -49.25560 6745 ft 144 kts 81°
2026-05-09 01:37 -1.48345 -49.24577 6746 ft 144 kts 81°
2026-05-09 01:37 -1.48143 -49.23591 6748 ft 145 kts 80°
2026-05-09 01:37 -1.47939 -49.22599 6747 ft 146 kts 81°
2026-05-09 01:37 -1.47736 -49.21608 6747 ft 145 kts 81°
2026-05-09 01:38 -1.47534 -49.20617 6746 ft 146 kts 81°
2026-05-09 01:38 -1.47330 -49.19625 6742 ft 146 kts 81°
2026-05-09 01:38 -1.47128 -49.18635 6741 ft 145 kts 81°
2026-05-09 01:38 -1.46926 -49.17647 6740 ft 145 kts 80°
2026-05-09 01:39 -1.46724 -49.16659 6736 ft 145 kts 81°
2026-05-09 01:39 -1.46522 -49.15677 6738 ft 144 kts 81°
2026-05-09 01:39 -1.46320 -49.14691 6737 ft 145 kts 81°
2026-05-09 01:39 -1.46117 -49.13701 6736 ft 145 kts 81°
2026-05-09 01:40 -1.45914 -49.12713 6735 ft 145 kts 81°
2026-05-09 01:40 -1.45714 -49.11731 6733 ft 144 kts 81°
2026-05-09 01:40 -1.45581 -49.11081 6732 ft 144 kts 81°
2026-05-09 01:40 -1.45312 -49.09766 6731 ft 144 kts 81°
2026-05-09 01:41 -1.45179 -49.09116 6731 ft 144 kts 81°
2026-05-09 01:41 -1.44977 -49.08132 6735 ft 145 kts 81°
2026-05-09 01:41 -1.44775 -49.07145 6731 ft 145 kts 80°
2026-05-09 01:41 -1.44572 -49.06158 6732 ft 145 kts 81°
2026-05-09 01:42 -1.44306 -49.04853 6729 ft 145 kts 81°
2026-05-09 01:42 -1.44169 -49.04187 6727 ft 145 kts 80°
2026-05-09 01:42 -1.43967 -49.03201 6727 ft 145 kts 80°
2026-05-09 01:42 -1.43764 -49.02215 6724 ft 145 kts 80°
2026-05-09 01:43 -1.43563 -49.01228 6723 ft 145 kts 81°
2026-05-09 01:43 -1.43360 -49.00241 6722 ft 145 kts 80°
2026-05-09 01:43 -1.43159 -48.99258 6721 ft 145 kts 81°
2026-05-09 01:43 -1.42960 -48.98286 6720 ft 145 kts 81°
2026-05-09 01:44 -1.42758 -48.97300 6719 ft 145 kts 81°
2026-05-09 01:44 -1.42556 -48.96312 6718 ft 145 kts 80°
2026-05-09 01:44 -1.42352 -48.95321 6717 ft 145 kts 81°
2026-05-09 01:44 -1.42150 -48.94331 6717 ft 146 kts 80°
2026-05-09 01:45 -1.41947 -48.93341 6716 ft 145 kts 80°
2026-05-09 01:45 -1.41744 -48.92351 6715 ft 145 kts 80°
2026-05-09 01:45 -1.41542 -48.91361 6714 ft 145 kts 80°
2026-05-09 01:45 -1.41338 -48.90372 6713 ft 145 kts 80°
2026-05-09 01:46 -1.41136 -48.89385 6712 ft 145 kts 80°
2026-05-09 01:46 -1.40934 -48.88398 6708 ft 145 kts 81°
2026-05-09 01:46 -1.40733 -48.87415 6706 ft 145 kts 81°
2026-05-09 01:46 -1.40531 -48.86429 6706 ft 145 kts 80°
2026-05-09 01:47 -1.40330 -48.85445 6704 ft 144 kts 80°
2026-05-09 01:47 -1.40128 -48.84461 6703 ft 145 kts 81°
2026-05-09 01:47 -1.39925 -48.83477 6702 ft 145 kts 81°
2026-05-09 01:47 -1.39724 -48.82493 6702 ft 145 kts 80°
2026-05-09 01:48 -1.39522 -48.81506 6702 ft 145 kts 80°
2026-05-09 01:48 -1.39319 -48.80518 6700 ft 145 kts 80°
2026-05-09 01:48 -1.39117 -48.79530 6699 ft 145 kts 80°
2026-05-09 01:48 -1.38915 -48.78547 6698 ft 144 kts 80°
2026-05-09 01:49 -1.38714 -48.77565 6697 ft 144 kts 80°
2026-05-09 01:49 -1.38513 -48.76581 6696 ft 145 kts 80°
2026-05-09 01:49 -1.38311 -48.75598 6695 ft 144 kts 80°
2026-05-09 01:49 -1.38110 -48.74617 6693 ft 144 kts 81°
2026-05-09 01:50 -1.37912 -48.73648 6690 ft 144 kts 81°
2026-05-09 01:50 -1.37710 -48.72665 6690 ft 144 kts 80°
2026-05-09 01:50 -1.37508 -48.71681 6688 ft 144 kts 80°
2026-05-09 01:50 -1.37306 -48.70694 6690 ft 147 kts 80°
2026-05-09 01:51 -1.37096 -48.69675 6699 ft 152 kts 80°
2026-05-09 01:51 -1.36881 -48.68631 6704 ft 155 kts 80°
2026-05-09 01:51 -1.36664 -48.67572 6705 ft 156 kts 80°
2026-05-09 01:51 -1.36445 -48.66507 6707 ft 157 kts 80°
2026-05-09 01:52 -1.36225 -48.65433 6708 ft 158 kts 80°
2026-05-09 01:52 -1.35998 -48.64343 6569 ft 166 kts 79°
2026-05-09 01:52 -1.35764 -48.63201 6270 ft 162 kts 81°
2026-05-09 01:52 -1.35556 -48.62150 5996 ft 148 kts 81°
2026-05-09 01:53 -1.35359 -48.61175 5744 ft 139 kts 81°
2026-05-09 01:53 -1.35170 -48.60251 5524 ft 133 kts 81°
2026-05-09 01:53 -1.34986 -48.59353 5296 ft 131 kts 81°
2026-05-09 01:53 -1.34805 -48.58468 5070 ft 129 kts 81°
2026-05-09 01:54 -1.34627 -48.57601 4849 ft 129 kts 81°
2026-05-09 01:54 -1.34273 -48.56777 4627 ft 131 kts 63°
2026-05-09 01:54 -1.33825 -48.55988 4403 ft 130 kts 65°
2026-05-09 01:54 -1.33404 -48.55193 4181 ft 129 kts 66°
2026-05-09 01:55 -1.32991 -48.54395 3960 ft 129 kts 66°
2026-05-09 01:55 -1.32581 -48.53601 3732 ft 128 kts 66°
2026-05-09 01:55 -1.32173 -48.52807 3516 ft 128 kts 66°
2026-05-09 01:55 -1.31765 -48.52018 3301 ft 128 kts 66°
2026-05-09 01:56 -1.31360 -48.51226 3078 ft 128 kts 66°
2026-05-09 01:56 -1.30951 -48.50431 2851 ft 128 kts 66°
2026-05-09 01:56 -1.30541 -48.49634 2629 ft 129 kts 65°
2026-05-09 01:56 -1.30191 -48.48830 2400 ft 127 kts 82°
2026-05-09 01:57 -1.30300 -48.47972 2171 ft 126 kts 112°
2026-05-09 01:57 -1.30856 -48.47296 1940 ft 129 kts 144°
2026-05-09 01:57 -1.31718 -48.47027 1706 ft 134 kts 176°
2026-05-09 01:57 -1.32656 -48.47119 1490 ft 135 kts 184°
2026-05-09 01:58 -1.33594 -48.47207 1269 ft 136 kts 183°
2026-05-09 01:58 -1.34528 -48.47295 1039 ft 133 kts 184°
2026-05-09 01:58 -1.35428 -48.47381 835 ft 126 kts 182°
2026-05-09 01:58 -1.36240 -48.47454 824 ft 109 kts 182°
2026-05-09 01:59 -1.36944 -48.47516 813 ft 97 kts 182°
2026-05-09 01:59 -1.37576 -48.47574 802 ft 86 kts 178°
2026-05-09 01:59 -1.38176 -48.47620 862 ft 95 kts 178°
2026-05-09 01:59 -1.38956 -48.47671 893 ft 127 kts 181°
2026-05-09 02:00 -1.39926 -48.47752 854 ft 151 kts 182°
2026-05-09 02:00 -1.41006 -48.47855 831 ft 161 kts 184°
2026-05-09 02:00 -1.42139 -48.47961 826 ft 164 kts 184°
2026-05-09 02:00 -1.43268 -48.48063 916 ft 159 kts 184°
2026-05-09 02:01 -1.44331 -48.48158 1148 ft 148 kts 183°
2026-05-09 02:01 -1.45333 -48.48248 1384 ft 142 kts 183°
2026-05-09 02:01 -1.46309 -48.48336 1624 ft 141 kts 183°
2026-05-09 02:01 -1.47292 -48.48423 1860 ft 143 kts 182°
2026-05-09 02:02 -1.48335 -48.48507 1911 ft 158 kts 180°
2026-05-09 02:02 -1.49355 -48.48160 1921 ft 160 kts 135°
2026-05-09 02:02 -1.49764 -48.47162 1927 ft 160 kts 88°
2026-05-09 02:02 -1.49393 -48.46124 1923 ft 162 kts 54°
2026-05-09 02:03 -1.48462 -48.45515 1927 ft 165 kts 16°
2026-05-09 02:03 -1.47383 -48.45304 1911 ft 148 kts 13°
2026-05-09 02:03 -1.46432 -48.45070 1902 ft 135 kts 16°
2026-05-09 02:03 -1.45566 -48.44836 1908 ft 128 kts 17°
2026-05-09 02:04 -1.44722 -48.44602 1903 ft 123 kts 18°
2026-05-09 02:04 -1.43912 -48.44375 1902 ft 120 kts 19°
2026-05-09 02:04 -1.43119 -48.44153 1904 ft 117 kts 19°
2026-05-09 02:04 -1.42340 -48.43929 1908 ft 117 kts 22°
2026-05-09 02:05 -1.41596 -48.43578 1911 ft 119 kts 30°
2026-05-09 02:05 -1.40843 -48.43223 1910 ft 120 kts 29°
2026-05-09 02:05 -1.40068 -48.42867 1839 ft 126 kts 28°
2026-05-09 02:05 -1.39255 -48.42479 1731 ft 132 kts 28°
2026-05-09 02:06 -1.38426 -48.42065 1623 ft 134 kts 28°
2026-05-09 02:06 -1.37604 -48.41640 1503 ft 133 kts 28°
2026-05-09 02:06 -1.36786 -48.41218 1384 ft 133 kts 29°
2026-05-09 02:07 -1.35072 -48.40596 1148 ft 135 kts 354°
2026-05-09 02:07 -1.34231 -48.41016 1023 ft 138 kts 315°
2026-05-09 02:07 -1.33838 -48.41858 903 ft 130 kts 288°
2026-05-09 02:07 -1.33640 -48.42725 798 ft 130 kts 266°
2026-05-09 02:08 -1.33998 -48.43484 792 ft 111 kts 239°
2026-05-09 02:08 -1.34361 -48.44123 694 ft 107 kts 239°
2026-05-09 02:08 -1.34933 -48.44617 392 ft 106 kts 193°
2026-05-09 02:08 -1.35519 -48.44911 395 ft 86 kts 201°
2026-05-09 02:09 -1.35898 -48.45379 372 ft 87 kts 227°
2026-05-09 02:09 -1.36294 -48.45791 355 ft 85 kts 193°
2026-05-09 02:09 -1.36831 -48.46185 362 ft 109 kts 201°
2026-05-09 02:09 -1.37392 -48.46731 412 ft 111 kts 219°
2026-05-09 02:10 -1.37851 -48.47268 721 ft 106 kts 229°
2026-05-09 02:10 -1.38290 -48.47885 1118 ft 104 kts 238°
2026-05-09 02:10 -1.38657 -48.48481 1517 ft 104 kts 230°
2026-05-09 02:10 -1.39143 -48.49033 1822 ft 108 kts 230°
2026-05-09 02:11 -1.39403 -48.49854 1874 ft 132 kts 272°
2026-05-09 02:11 -1.39090 -48.50662 2170 ft 136 kts 308°
2026-05-09 02:11 -1.38321 -48.51452 1161 ft 192 kts 316°
2026-05-09 02:11 -1.37588 -48.51934 1705 ft 107 kts 330°
2026-05-09 02:12 -1.36899 -48.52363 1761 ft 126 kts 327°
2026-05-09 02:12 -1.36244 -48.53001 1838 ft 141 kts 295°
2026-05-09 02:12 -1.36266 -48.53975 1854 ft 149 kts 244°
2026-05-09 02:12 -1.36763 -48.54909 1854 ft 154 kts 239°
2026-05-09 02:13 -1.37267 -48.55866 1850 ft 157 kts 240°
2026-05-09 02:13 -1.37789 -48.56837 1846 ft 161 kts 240°
2026-05-09 02:13 -1.38333 -48.57828 1846 ft 165 kts 237°
2026-05-09 02:13 -1.39213 -48.58525 1847 ft 166 kts 193°
2026-05-09 02:14 -1.40312 -48.58388 1844 ft 162 kts 147°
2026-05-09 02:14 -1.41003 -48.57534 1846 ft 159 kts 118°
2026-05-09 02:14 -1.41650 -48.56655 1779 ft 162 kts 134°
2026-05-09 02:14 -1.42514 -48.55979 1653 ft 150 kts 141°
2026-05-09 02:15 -1.43246 -48.55309 1508 ft 136 kts 121°
2026-05-09 02:15 -1.43565 -48.54477 1362 ft 124 kts 97°
2026-05-09 02:15 -1.43517 -48.53681 1245 ft 110 kts 75°
2026-05-09 02:15 -1.43195 -48.53006 1107 ft 106 kts 54°
2026-05-09 02:16 -1.42696 -48.52484 975 ft 103 kts 45°
2026-05-09 02:16 -1.42204 -48.51979 843 ft 100 kts 45°
2026-05-09 02:16 -1.41724 -48.51490 716 ft 97 kts 44°
2026-05-09 02:16 -1.41256 -48.51013 532 ft 98 kts 43°
2026-05-09 02:17 -1.40749 -48.50499 183 ft 107 kts 40°
2026-05-09 02:17 -1.40261 -48.49983 98 ft 89 kts 48°
2026-05-09 02:17 -1.39881 -48.49607 164 ft 65 kts 47°
2026-05-09 02:17 -1.39603 -48.49319 168 ft 56 kts 53°
2026-05-09 02:18 -1.39440 -48.48971 234 ft 57 kts 58°
2026-05-09 02:18 -1.39046 -48.48752 166 ft 74 kts 37°
2026-05-09 02:18 -1.38708 -48.48404 79 ft 67 kts 37°
2026-05-09 02:18 -1.38406 -48.48094 44 ft 56 kts 44°
2026-05-09 02:19 -1.38180 -48.47857 41 ft 31 kts 41°
2026-05-09 02:19 -1.38056 -48.47746 41 ft 16 kts 45°
2026-05-09 02:19 -1.38014 -48.47712 40 ft 2 kts 292°
2026-05-09 02:19 -1.38039 -48.47743 41 ft 11 kts 224°
2026-05-09 02:20 -1.38092 -48.47814 41 ft 9 kts 263°
2026-05-09 02:20 -1.38069 -48.47874 42 ft 9 kts 312°
2026-05-09 02:20 -1.38050 -48.47911 42 ft 8 kts 234°
2026-05-09 02:20 -1.38057 -48.47987 42 ft 9 kts 274°
2026-05-09 02:21 -1.38088 -48.48020 42 ft 12 kts 207°
2026-05-09 02:21 -1.38167 -48.48078 43 ft 12 kts 228°
2026-05-09 02:21 -1.38175 -48.48087 43 ft 0 kts 227°